Vorticity
nan nan nan nan nan nan nan nan nan nan nan nan nan nan nan nan nan nan nan nan nan nan nan nan nan nan nan nan nan nan nan nan nan nan nan nan nan nan nan nan nan nan nan
nan 9 9 9 10 10 9 10 9 10 11 10 9 10 11 12 13 10 8 8 10 9 8 9 10 9 9 9 9 9 10 10 13 10 11 11 10 8 10 12 14 13 nan
nan 11 9 10 11 9 10 13 14 12 10 11 12 11 10 11 11 11 11 10 10 11 11 11 11 8 8 8 8 12 12 14 13 12 9 10 13 15 10 10 13 12 nan
nan 9 9 9 10 10 9 9 10 11 13 11 9 10 10 11 11 11 12 12 11 11 11 10 11 8 8 8 8 11 13 14 12 12 11 9 10 11 12 9 8 7 nan
nan 7 7 7 7 8 10 11 10 8 10 12 12 11 10 11 12 13 12 11 8 8 9 9 10 10 10 9 8 8 11 12 10 10 11 9 9 6 10 10 8 7 nan
nan 9 10 10 10 9 9 9 11 12 9 9 9 10 10 15 17 10 7 8 10 10 8 9 9 9 7 9 10 12 11 8 8 9 10 9 9 10 10 11 9 10 nan
nan 12 12 12 11 11 11 10 10 10 13 11 10 9 10 14 17 11 4 6 10 10 10 10 9 10 9 9 11 11 12 13 10 11 10 10 11 11 9 8 9 10 nan
nan 10 8 8 10 10 10 10 11 10 10 12 13 10 11 17 17 11 5 5 10 11 11 9 11 11 9 10 8 7 9 11 15 17 14 13 13 12 10 11 9 8 nan
nan 10 11 11 10 9 10 11 11 9 11 12 10 13 14 14 14 13 9 7 11 12 12 12 13 11 13 11 8 7 7 5 10 14 14 13 10 9 11 11 11 9 nan
nan 9 12 12 12 13 12 13 11 12 13 10 9 14 16 15 13 11 8 9 10 10 11 16 12 10 11 13 11 6 6 9 6 4 7 10 11 9 8 12 13 11 nan
nan 9 10 12 11 11 12 14 13 12 12 11 12 19 18 15 17 15 9 11 14 9 9 9 11 13 8 12 13 10 10 11 7 7 8 7 8 10 8 10 12 12 nan
nan 9 10 10 12 12 14 13 14 17 15 12 15 14 13 15 15 17 14 11 13 16 8 8 15 11 8 8 15 20 11 4 8 8 9 9 10 9 10 9 8 10 nan
nan 11 9 10 10 11 14 15 13 15 19 18 15 11 10 10 10 10 8 10 17 18 15 14 10 7 6 7 9 8 10 11 11 11 11 11 12 11 8 7 8 9 nan
nan 10 9 9 11 11 13 15 13 14 19 18 14 11 9 10 9 9 10 8 13 16 18 10 7 9 10 7 6 7 9 13 13 11 11 11 10 10 10 10 10 9 nan
nan 9 11 9 8 11 10 12 17 16 20 18 15 14 13 12 14 16 20 17 7 7 10 8 11 13 11 9 9 10 8 11 12 11 10 11 9 10 11 10 11 12 nan
nan 8 10 10 9 11 9 3 5 9 11 15 18 22 16 8 13 15 12 12 19 17 7 9 11 11 10 11 10 7 10 10 10 12 11 10 11 11 10 9 10 11 nan
nan 9 8 10 11 10 9 10 4 3 2 2 7 11 12 9 6 12 11 7 10 13 11 13 13 14 11 11 11 11 11 9 9 9 12 11 11 10 10 10 10 9 nan
nan 9 8 9 9 9 10 10 9 10 6 3 5 5 6 9 5 5 10 11 7 9 11 10 12 13 15 14 11 10 10 12 11 11 11 12 11 10 9 11 12 11 nan
nan 9 10 9 10 10 8 9 10 10 11 11 6 5 6 5 7 9 12 12 9 9 8 6 7 12 9 11 15 10 9 9 10 10 9 10 11 10 11 12 14 12 nan
nan 12 7 8 8 8 9 8 7 8 9 8 12 11 3 6 8 8 8 9 9 9 9 12 10 8 14 13 7 9 10 10 9 9 9 8 11 11 10 11 11 12 nan
nan 9 11 11 9 9 9 8 9 9 9 8 9 7 6 11 11 10 10 8 10 9 9 11 13 17 14 9 9 9 12 12 12 12 12 12 11 11 11 9 9 12 nan
nan 10 11 10 13 12 11 10 10 10 9 10 10 13 13 6 9 8 10 11 12 10 11 9 13 15 12 12 12 12 13 14 14 12 10 11 10 10 11 12 13 11 nan
nan 10 11 11 12 12 12 12 12 11 10 10 11 12 15 11 11 10 10 9 10 11 11 14 14 12 13 13 12 12 11 10 11 12 13 11 9 10 11 11 10 10 nan
nan 14 13 12 12 12 11 12 12 11 11 10 10 12 10 12 10 10 12 15 16 14 13 14 14 11 9 11 12 15 14 14 13 14 13 10 9 9 9 11 12 12 nan
nan 13 15 13 9 9 12 13 12 11 11 11 12 13 14 12 10 14 13 13 13 12 13 11 9 11 13 13 11 10 10 13 13 12 10 11 11 11 12 10 9 12 nan
nan nan nan nan nan nan nan nan nan nan nan nan nan nan nan nan nan nan nan nan nan nan nan nan nan nan nan nan nan nan nan nan nan nan nan nan nan nan nan nan nan nan nan
CAPE
2701 2755 2575 1734 260 819 1817 2250 1669 1771 2333 2259 2526 2597 2871 3005 2686 2372 2223 2158 2379 2466 2176 2223 2109 1900 1744 1498 1325 1411 1375 627 738 240 182 50 0 0 0 0 0 81 153
1988 1536 1112 765 229 77 315 474 2155 2449 2598 2833 2825 2930 3090 3179 2731 2626 2120 1945 2329 2202 2269 2087 1573 1562 786 500 394 422 613 1029 1125 636 158 202 0 0 7 20 468 836 198
1561 2060 1913 2516 3124 2979 3076 3059 3343 3361 3398 3493 3276 3131 3252 3305 2940 2640 2471 2443 2175 1690 1899 1836 1326 748 447 190 62 312 770 887 458 204 149 76 71 0 127 92 74 55 39
423 625 959 1462 1877 1912 2294 2429 2701 3074 3437 3332 3360 3388 3235 3271 3203 2785 2591 2437 1889 1572 1455 1194 828 516 309 83 43 145 239 284 217 109 92 1 5 2 3 1 2 1 1
0 11 89 286 499 980 1541 1890 2316 2391 2568 2950 3286 3254 3298 3404 3213 2695 2322 1960 1652 1320 1174 815 528 347 53 3 1 30 81 132 47 3 1 6 2 1 0 1 1 0 0
0 34 77 151 182 207 471 839 1316 1716 1729 1713 1888 2263 2512 3059 3158 2602 1937 1502 1137 1172 952 763 267 107 0 0 0 15 8 63 44 15 0 0 0 0 0 0 0 0 0
66 175 183 210 284 334 334 369 399 733 1313 1761 1702 1800 1972 2317 2693 1620 1736 1349 1216 1091 880 727 242 56 0 0 0 0 15 14 22 11 0 0 0 0 0 0 0 0 0
3 0 0 0 0 0 14 36 101 284 441 1086 1422 1688 1508 1802 2138 867 930 1109 1345 1034 941 540 322 99 19 0 0 0 0 0 0 0 0 0 0 0 0 0 0 0 0
0 0 0 0 1 0 0 0 2 20 106 334 823 1282 1792 1263 159 6 260 592 1040 1092 940 664 150 0 0 0 0 0 0 0 0 0 0 0 0 0 0 0 0 0 0
0 8 1 0 0 1 0 0 1 2 12 200 381 681 1185 809 0 0 18 616 807 37 0 9 11 0 0 0 0 0 0 0 0 0 0 0 0 0 0 0 0 0 0
1 0 0 2 0 0 1 2 1 0 0 84 318 631 746 252 1 1 0 289 216 0 0 0 0 0 0 0 0 0 0 0 0 0 0 0 0 0 0 0 0 0 0
2 0 4 5 1 0 2 1 1 2 0 22 157 207 34 1 0 0 0 0 0 0 0 0 0 0 0 0 0 0 0 0 0 0 0 0 0 0 0 0 0 0 0
0 0 0 2 2 2 2 1 1 1 126 155 232 2 2 2 1 0 0 0 0 0 0 0 0 0 0 0 0 0 0 0 0 0 0 0 0 0 0 0 0 0 0
0 0 0 0 3 3 1 1 2 1 1 2 1 1 2 2 1 1 1 0 0 0 0 0 0 0 0 0 0 0 0 0 0 0 0 0 0 0 0 0 0 0 0
0 0 0 0 1 2 7 1 1 1 0 2 3 2 2 1 2 1 0 0 0 0 0 0 0 0 0 0 0 0 0 0 0 0 0 0 0 0 0 0 0 0 0
0 0 0 0 0 1 1 0 0 0 0 0 1 0 1 0 0 0 0 0 0 0 2 7 0 0 0 0 0 0 0 0 0 0 0 0 0 0 0 0 0 0 0
0 0 0 0 0 0 0 0 0 0 0 0 0 0 0 0 0 0 0 0 0 0 0 0 0 4 8 33 0 0 0 0 0 0 0 0 0 0 0 0 0 0 0
0 0 0 0 0 0 0 0 0 0 0 0 0 0 0 0 0 0 0 0 0 0 8 17 19 34 14 15 5 1 0 0 0 0 0 0 0 0 0 0 0 0 0
1 0 0 0 0 0 0 0 0 0 0 0 0 0 0 0 0 0 0 0 0 0 0 30 35 29 15 49 10 13 2 0 0 0 0 0 0 0 0 0 0 0 0
3 18 0 0 0 0 0 0 0 0 0 0 0 0 0 0 0 0 0 0 0 4 12 16 31 23 25 81 55 15 0 0 0 0 0 0 0 0 0 0 0 0 0
44 0 10 1 0 0 0 0 0 0 0 0 0 0 0 0 3 11 25 45 42 12 8 37 15 63 57 77 36 21 9 0 0 0 0 0 0 0 0 0 0 0 0
38 52 18 11 17 26 14 0 0 2 8 4 6 0 0 0 0 0 0 6 30 31 14 35 47 41 49 50 38 14 6 7 1 0 0 0 0 0 0 0 2 1 0
168 100 95 59 19 37 10 3 5 0 1 0 7 11 6 0 0 0 0 1 6 9 8 25 46 23 71 40 62 24 4 0 0 0 0 0 4 1 5 7 1 0 0
0 34 82 15 13 20 14 9 13 21 25 9 7 16 19 3 0 0 0 8 25 18 32 40 36 21 41 11 18 11 3 7 12 11 6 12 10 3 0 0 0 0 0
1 23 28 8 10 19 8 0 6 0 0 4 7 50 40 25 12 34 23 11 31 39 26 34 38 42 34 2 1 0 0 0 0 0 0 0 0 0 0 0 0 0 0
5 14 2 0 0 7 36 19 35 44 25 2 15 2 3 8 0 5 11 44 20 7 11 2 10 26 27 4 0 0 0 0 0 0 0 0 0 0 0 0 0 0 0